Flag for Canada Weather past 2 weeks in St. John's, Newfoundland and Labrador, Canada

Now
36 °F

Drizzle. Fog.


Feels Like: 31 °F
Forecast: 34 / 40 °F
Wind: 6 mph from Southeast

Location: St. John's

Current Time: Apr 28, 2015 at 12:09:08 PM

Latest Report: Apr 28, 2015 at 11:30 AM


Visibility: 0 mi

Pressure: 29.29 "Hg

Humidity: 100%

Dew point: 36 °F

Location of St. John'sLocation

Historic Weather in St. John's — Graph

°F

St. John's temperature yesterday

Maximum temperature yesterday: 37 °F (at 10:30 AM)
Minimum temperature yesterday: 32 °F (at 5:30 PM)
Average temperature yesterday: 34 °F

Past Weeks' High & Low Weather Summary

 TemperatureHumidityPressure
High52 °F (Apr 14, 12:30 PM)100% (Apr 15, 1:30 AM)30.34 "Hg (Apr 15, 1:30 AM)
Low19 °F (Apr 16, 7:30 PM)41% (Apr 13, 1:30 PM)29.19 "Hg (Apr 28, 4:30 AM)
Average33 °F85%29.88 "Hg
* Reported Apr 13 10:30 AM — Apr 28 10:30 AM, St. John's, Weather by CustomWeather, © 2015

Note: Actual official high and low records may vary slightly from our data, if they occured in-between our weather recording intervals... More about our weather records

Advertising

St. John's weather history for previous 24 hours

 ConditionsComfort  
Time TempWeatherWind HumidityBarometerVisibility
10:30 AM
Tue, Apr 28
34 °FDrizzle. Fog.12 mph100%29.29 "Hg0 mi
9:30 AM36 °FDrizzle. Fog.15 mph100%29.27 "Hg0 mi
8:30 AM34 °FLight rain. Fog.18 mph100%29.25 "Hg0 mi
7:30 AM34 °FLight rain. Fog.20 mph100%29.23 "Hg0 mi
7:24 AM34 °FLight rain. Fog.17 mph100%29.23 "Hg0 mi
6:30 AM36 °FLight rain. Fog.17 mph100%29.21 "Hg1 mi
5:30 AM37 °FLight rain. Fog.18 mph100%29.19 "Hg1 mi
4:30 AM36 °FDrizzle. Fog.17 mph100%29.19 "Hg1 mi
3:30 AM36 °FDrizzle. Fog.17 mph100%29.22 "Hg0 mi
2:30 AM36 °FLight rain. Fog.21 mph100%29.24 "Hg1 mi
1:30 AM36 °FRain. Fog.24 mph100%29.28 "Hg1 mi
12:30 AM34 °FChilly.23 mph100%29.33 "Hg2 mi
12:20 AM34 °FRain. Fog.22 mph100%29.34 "Hg1 mi
11:30 PM
Mon, Apr 27
32 °FChilly.23 mph100%29.40 "Hg1 mi
10:30 PM32 °FLight freezing rain. Ice fog.23 mph100%29.48 "Hg1 mi
9:30 PM32 °FLight freezing rain. Ice fog.22 mph100%29.54 "Hg1 mi
8:30 PM32 °FLight freezing rain. Ice fog.18 mph100%29.57 "Hg2 mi
7:30 PM32 °FLight freezing rain. Ice fog.17 mph100%29.61 "Hg1 mi
7:22 PM32 °FLight freezing rain. Ice fog.16 mph100%29.62 "Hg1 mi
6:30 PM32 °FLight freezing rain. Ice fog.15 mph100%29.65 "Hg1 mi
6:21 PM32 °FLight freezing rain. Ice fog.14 mph100%29.65 "Hg1 mi
5:30 PM32 °FDrizzle. Ice fog.13 mph100%29.67 "Hg2 mi
4:30 PM36 °FFog.13 mph93%29.70 "Hg4 mi
3:30 PM37 °FFog.13 mph93%29.71 "Hg3 mi
2:30 PM37 °FFog.12 mph100%29.73 "Hg4 mi
1:30 PM37 °FDrizzle. Fog.13 mph100%29.73 "Hg3 mi
12:30 PM37 °FDrizzle. Fog.12 mph100%29.74 "Hg1 mi
Weather by CustomWeather, © 2015

See weather overviewHow to use our weather pages